[[{"header":{"parameterUnit":"m.s-1","parameterCategory":1,"la1":30.2991,"la2":30.254,"lo1":-89.0895,"lo2":-89.0444,"dy":0.0017,"dx":0.0017,"nx":28,"ny":28,"refTime":"2025-04-06T21:00:00:Z","depth":0,"parameterNumber":2,"parameterNumberName":"U-component_of_WINDS"},"data":[0,0,0,0,0,0,0,0,0,0,0,0,0,0,0,0,0,0,0,0,0,0,0,0,0,0,0,0,0,0,0,0,0,0,0,0,0,0,0,0,0,0,0,0,0,0,0,0,0,0,0,0,0,0,0,0,0,0,0.9112,0.9111,0,0.9033,0.9033,0.9032,0.9036,0.9037,0.9038,0.9039,0.8955,0.8951,0.8948,0,0,0,0,0,0,0,0,0,0,0,0,0,0.9261,0.9258,0.9112,0.9111,0.911,0.9034,0.9032,0.9031,0.9035,0.9037,0.9038,0.9039,0.8956,0.8952,0.8948,0,0,0,0,0,0,0,0,0,0,0,0,0,0.9191,0.9258,0.9112,0.9103,0.9101,0.9034,0.9032,0.9031,0.9035,0.9037,0.9038,0.904,0.8957,0.8952,0.8947,0.8883,0,0,0.8932,0.893,0,0,0,0,0,0,0,0,0.9195,0.9185,0.9105,0.9103,0.9102,0.9046,0.9054,0.8981,0.9035,0.906,0.9039,0.9041,0.8983,0.8976,0.8958,0.8879,0.8875,0.8932,0.8929,0.8927,0.8925,0,0,0,0,0,0,0,0.92,0.9189,0.9081,0.9104,0.9102,0.9101,0.9093,0.904,0.9013,0.9058,0.9058,0.9049,0.8983,0.8963,0.8956,0.8874,0.8932,0.8927,0.8924,0.8922,0.8735,0.8733,0,0,0,0,0,0,0.9207,0.9193,0.9083,0.9078,0.9153,0.9097,0.9088,0.9062,0.9014,0.9008,0.9048,0.9049,0.897,0.8962,0.8953,0.8871,0.8927,0.8922,0.8919,0.8737,0.8735,0.8732,0,0,0,0,0,0,0.921,0.9197,0.9086,0.9136,0.9121,0.9093,0.9064,0.906,0.9039,0.9006,0.9001,0.9032,0.8971,0.896,0.89,0.8868,0.892,0.8915,0.8739,0.8736,0.8734,0.8709,0,0,0,0,0,0,0.9215,0.9199,0.9175,0.9135,0.9119,0.9036,0.9062,0.9057,0.9031,0.9033,0.899,0.8984,0.8972,0.8907,0.8895,0.8863,0.8911,0.8742,0.8738,0.8735,0.8713,0.8706,0.87,0,0,0,0,0,0.922,0.9171,0.9173,0.916,0.9089,0.9034,0.9024,0.9012,0.9029,0.9004,0.8982,0.8986,0.8875,0.8901,0.8887,0.8853,0.8744,0.8739,0.8735,0.8715,0.8707,0.87,0,0,0,0,0,0,0.9206,0.9165,0.9168,0.9105,0.9073,0.9035,0.9002,0.9004,0.8965,0.8968,0.8953,0.8944,0.8882,0.8862,0.8892,0.8787,0.8811,0.8804,0.8801,0.8793,0.8787,0.8791,0.8907,0,0,0,0,0,0.9196,0.9156,0.9123,0.907,0.9054,0.9031,0.9007,0.9,0.8966,0.8952,0.8926,0.8891,0.8848,0.882,0.8779,0.8711,0.87,0.8681,0.8675,0.867,0.8662,0.8621,0.8611,0.8718,0.8718,0.8718,0,0,0.9174,0.9147,0.9122,0.9066,0.9041,0.8998,0.902,0.8974,0.8941,0.8945,0.8885,0.8865,0.8826,0.8761,0.8731,0.8742,0.8631,0.8664,0.866,0.8655,0.8615,0.8605,0.8596,0.8715,0.8715,0.8716,0,0,0.9111,0.9088,0.904,0.9014,0.8976,0.8961,0.895,0.8911,0.8898,0.8839,0.884,0.8801,0.8729,0.8699,0.8675,0.8601,0.8602,0.8589,0.8554,0.8514,0.8506,0.8498,0.8468,0.8458,0.8582,0.8582,0.8582,0,0.9088,0.9025,0.9015,0.8969,0.8943,0.8946,0.8895,0.8871,0.882,0.8802,0.8816,0.8723,0.8697,0.8624,0.8606,0.8588,0.8572,0.8591,0.8508,0.85,0.8493,0.8464,0.8453,0.858,0.8581,0.8581,0.8581,0,0.8996,0.8952,0.8918,0.887,0.8841,0.8793,0.8775,0.8746,0.8742,0.8725,0.8664,0.8633,0.8584,0.8568,0.8563,0.8493,0.85,0.8512,0.8535,0.8481,0.8454,0.8443,0.8578,0.8579,0.8579,0.8579,0,0,0.892,0.8867,0.8854,0.8831,0.879,0.8754,0.8707,0.866,0.8634,0.86,0.8557,0.8496,0.8505,0.8478,0.8471,0.8437,0.8376,0.8452,0.845,0.8435,0.8292,0.828,0.8268,0.8378,0.8376,0.8374,0.8294,0,0.8849,0.8764,0.8754,0.8678,0.8635,0.8638,0.8595,0.8564,0.8547,0.8508,0.8489,0.8444,0.8463,0.8446,0.8413,0.839,0.8346,0.8396,0.8334,0.8332,0.834,0.8254,0.8242,0.8167,0.8283,0.8282,0.828,0,0.8755,0.8718,0.8638,0.86,0.8582,0.8544,0.8499,0.8463,0.8427,0.8417,0.8386,0.8383,0.8331,0.836,0.8287,0.8321,0.8296,0.8281,0.8278,0.8268,0.83,0.8238,0.8144,0.8131,0.8264,0.8265,0.8266,0,0.8703,0.8633,0.8575,0.8556,0.8512,0.8484,0.8464,0.843,0.8402,0.8364,0.8345,0.8301,0.8275,0.824,0.8225,0.8248,0.8151,0.8179,0.8138,0.8138,0.8114,0.8114,0.801,0.8105,0.8105,0.8105,0.8106,0,0.8623,0.8572,0.855,0.8514,0.8457,0.8446,0.8389,0.837,0.834,0.8299,0.8299,0.826,0.8244,0.8202,0.819,0.8128,0.8118,0.8107,0.8103,0.8104,0.8104,0.8083,0.8086,0.8102,0.8103,0.8104,0.8104,0,0.8552,0.8536,0.8472,0.8436,0.8425,0.8384,0.8352,0.8316,0.8301,0.8248,0.8235,0.821,0.816,0.8143,0.8083,0.8074,0.8002,0.8005,0.8014,0.8012,0.7969,0.7972,0.7844,0.7825,0.7937,0.7936,0.7935,0,0.85,0.8461,0.842,0.8393,0.8372,0.8329,0.83,0.8289,0.8258,0.8214,0.8183,0.8134,0.8093,0.8014,0.7989,0.7942,0.7941,0.79,0.7934,0.7935,0.7935,0.7936,0.793,0.7892,0.7891,0.789,0.7889,0,0.8408,0.8402,0.8361,0.8317,0.8284,0.8248,0.8214,0.8192,0.8175,0.8141,0.809,0.8059,0.7998,0.7948,0.79,0.7878,0.7878,0.7879,0.7866,0.7864,0.7869,0.7861,0.7991,0.7881,0.7882,0.7882,0.7883,0.7883,0.8342,0.8306,0.8271,0.8226,0.8199,0.8167,0.813,0.8111,0.8069,0.8018,0.8014,0.7958,0.7922,0.7858,0.7834,0.7789,0.78,0.7783,0.7777,0.7772,0.7766,0.788,0.7781,0.7781,0.7782,0.7782,0.7782,0,0.8245,0.8224,0.8182,0.8134,0.8097,0.8105,0.8068,0.8036,0.7987,0.7954,0.7914,0.7855,0.7807,0.7779,0.773,0.7699,0.7698,0.7686,0.7686,0.768,0.7762,0.7776,0.7687,0.7687,0.7687,0.7688,0.7688,0.7688,0.8191,0.813,0.812,0.8045,0.8023,0.7969,0.7946,0.7916,0.7889,0.7823,0.7783,0.7766,0.7734,0.7682,0.7637,0.763,0.761,0.7596,0.7589,0.7665,0.7675,0.7684,0.7696,0.7593,0.7593,0.751,0.751,0.7509]},{"header":{"parameterUnit":"m.s-1","parameterCategory":1,"la1":30.2991,"la2":30.254,"lo1":-89.0895,"lo2":-89.0444,"dy":0.0017,"dx":0.0017,"nx":28,"ny":28,"refTime":"2025-04-06T21:00:00:Z","depth":0,"parameterNumber":3,"parameterNumberName":"V-component_of_WINDS"},"data":[0,0,0,0,0,0,0,0,0,0,0,0,0,0,0,0,0,0,0,0,0,0,0,0,0,0,0,0,0,0,0,0,0,0,0,0,0,0,0,0,0,0,0,0,0,0,0,0,0,0,0,0,0,0,0,0,0,0,-5.298,-5.2983,0,-5.3205,-5.3208,-5.321,-5.3166,-5.3162,-5.3158,-5.3154,-5.3383,-5.3393,-5.3402,0,0,0,0,0,0,0,0,0,0,0,0,0,-5.2511,-5.252,-5.298,-5.2983,-5.2986,-5.3205,-5.3208,-5.3211,-5.3167,-5.3162,-5.3157,-5.3153,-5.338,-5.3391,-5.3403,0,0,0,0,0,0,0,0,0,0,0,0,0,-5.2723,-5.2523,-5.298,-5.299,-5.2994,-5.3204,-5.3208,-5.3212,-5.3168,-5.3162,-5.3156,-5.315,-5.3376,-5.339,-5.3405,-5.3618,0,0,-5.345,-5.3457,0,0,0,0,0,0,0,0,-5.2711,-5.2741,-5.2986,-5.299,-5.2994,-5.3151,-5.3126,-5.3348,-5.317,-5.3102,-5.3154,-5.3147,-5.3311,-5.3331,-5.3386,-5.3629,-5.3639,-5.3451,-5.346,-5.3467,-5.3471,0,0,0,0,0,0,0,-5.2697,-5.2731,-5.3069,-5.299,-5.2995,-5.2983,-5.3007,-5.3168,-5.3238,-5.3107,-5.3105,-5.3132,-5.3312,-5.3372,-5.3391,-5.3642,-5.3451,-5.3464,-5.3473,-5.3479,-5.4072,-5.4078,0,0,0,0,0,0,-5.2679,-5.2719,-5.3062,-5.3076,-5.2835,-5.2997,-5.3023,-5.3107,-5.3236,-5.325,-5.3137,-5.3129,-5.335,-5.3374,-5.3399,-5.3658,-5.3467,-5.3481,-5.3489,-5.4065,-5.4073,-5.4081,0,0,0,0,0,0,-5.2669,-5.271,-5.3053,-5.2897,-5.294,-5.3011,-5.3106,-5.3115,-5.3175,-5.3258,-5.327,-5.3186,-5.3346,-5.3378,-5.3564,-5.3665,-5.3487,-5.3501,-5.4057,-5.4068,-5.4077,-5.4177,0,0,0,0,0,0,-5.2655,-5.2706,-5.2789,-5.2899,-5.2948,-5.3215,-5.3112,-5.3124,-5.3201,-5.3193,-5.3307,-5.332,-5.3343,-5.3543,-5.3579,-5.3682,-5.3512,-5.4048,-5.4062,-5.4074,-5.4165,-5.419,-5.4211,0,0,0,0,0,-5.2639,-5.2807,-5.2793,-5.2835,-5.3053,-5.3221,-5.3249,-5.3273,-5.3209,-5.3292,-5.3346,-5.3317,-5.3648,-5.3562,-5.3603,-5.3712,-5.4042,-5.4058,-5.4073,-5.4155,-5.4185,-5.421,0,0,0,0,0,0,-5.2707,-5.2822,-5.2807,-5.3017,-5.311,-5.3213,-5.3319,-5.3304,-5.3416,-5.3404,-5.3428,-5.3454,-5.3644,-5.3696,-5.3598,-5.3926,-5.3836,-5.386,-5.3885,-5.3914,-5.3936,-5.3919,-5.3525,0,0,0,0,0,-5.2746,-5.2874,-5.2968,-5.3143,-5.3191,-5.3247,-5.3321,-5.3332,-5.3429,-5.3467,-5.3534,-5.3629,-5.3755,-5.3837,-5.3957,-5.4172,-5.4197,-5.4268,-5.429,-5.4308,-5.4329,-5.4448,-5.448,-5.4132,-5.4131,-5.4131,0,0,-5.2829,-5.2907,-5.2987,-5.3159,-5.3232,-5.3364,-5.328,-5.3423,-5.3521,-5.3489,-5.3669,-5.3722,-5.3829,-5.4031,-5.4123,-5.4081,-5.4431,-5.4328,-5.4342,-5.4353,-5.4467,-5.45,-5.4529,-5.4142,-5.414,-5.4138,0,0,-5.3047,-5.3119,-5.3274,-5.3349,-5.3461,-5.3497,-5.3534,-5.3641,-5.3675,-5.3856,-5.3835,-5.3951,-5.4167,-5.4244,-5.4312,-5.4559,-5.4537,-5.4597,-5.4716,-5.4831,-5.4859,-5.4883,-5.4972,-5.5004,-5.4618,-5.4618,-5.4618,0,-5.3135,-5.3333,-5.3355,-5.35,-5.3577,-5.3554,-5.3711,-5.3782,-5.3928,-5.3981,-5.3931,-5.4201,-5.4272,-5.4492,-5.4552,-5.4607,-5.4651,-5.4585,-5.4853,-5.4878,-5.4901,-5.4986,-5.5019,-5.4625,-5.4624,-5.4623,-5.4623,0,-5.3437,-5.3574,-5.3686,-5.3827,-5.3916,-5.4066,-5.411,-5.4198,-5.42,-5.4241,-5.4426,-5.451,-5.4647,-5.47,-5.4703,-5.4921,-5.4891,-5.4847,-5.4758,-5.4941,-5.5021,-5.5054,-5.4634,-5.4632,-5.463,-5.4628,0,0,-5.3704,-5.3856,-5.3897,-5.3961,-5.4083,-5.4189,-5.4338,-5.4473,-5.4547,-5.4648,-5.4773,-5.4956,-5.4917,-5.4993,-5.5005,-5.5106,-5.5297,-5.505,-5.5053,-5.5094,-5.5543,-5.5576,-5.5613,-5.5283,-5.5289,-5.5294,-5.5534,0,-5.3934,-5.4198,-5.4222,-5.4458,-5.4586,-5.4566,-5.4696,-5.4784,-5.4827,-5.4941,-5.4987,-5.5117,-5.5055,-5.5101,-5.52,-5.5253,-5.5388,-5.5236,-5.54,-5.5406,-5.5375,-5.5655,-5.5691,-5.5913,-5.5566,-5.5571,-5.5575,0,-5.4238,-5.4348,-5.4598,-5.4702,-5.4757,-5.4873,-5.4998,-5.5107,-5.5207,-5.5231,-5.5317,-5.5315,-5.5468,-5.5372,-5.5583,-5.5479,-5.5548,-5.5584,-5.5593,-5.561,-5.5502,-5.5681,-5.5985,-5.6018,-5.5624,-5.562,-5.5617,0,-5.4409,-5.462,-5.4797,-5.4852,-5.4978,-5.506,-5.5117,-5.521,-5.529,-5.5399,-5.5451,-5.5576,-5.5645,-5.5741,-5.5773,-5.57,-5.5983,-5.589,-5.6008,-5.6007,-5.6069,-5.6065,-5.6389,-5.6111,-5.6111,-5.611,-5.611,0,-5.4664,-5.4818,-5.4876,-5.4985,-5.5156,-5.5181,-5.535,-5.5402,-5.5486,-5.5604,-5.5594,-5.5705,-5.574,-5.5857,-5.5882,-5.6054,-5.6084,-5.6108,-5.6113,-5.611,-5.6107,-5.6156,-5.6141,-5.6119,-5.6117,-5.6115,-5.6114,0,-5.4885,-5.493,-5.5121,-5.5225,-5.5254,-5.5376,-5.5465,-5.5569,-5.561,-5.576,-5.5796,-5.586,-5.5997,-5.6038,-5.6203,-5.622,-5.6421,-5.6412,-5.6388,-5.6389,-5.6504,-5.6493,-5.6872,-5.6924,-5.6611,-5.6614,-5.6616,0,-5.5045,-5.5163,-5.5279,-5.5358,-5.5418,-5.5545,-5.5626,-5.5655,-5.574,-5.5862,-5.5953,-5.6088,-5.6199,-5.6419,-5.6479,-5.6605,-5.66,-5.6724,-5.6618,-5.6611,-5.6603,-5.6596,-5.6608,-5.6744,-5.6747,-5.675,-5.6752,0,-5.5325,-5.5341,-5.5459,-5.5585,-5.5682,-5.5783,-5.5879,-5.5944,-5.5987,-5.6083,-5.6223,-5.6309,-5.6478,-5.6613,-5.6741,-5.6798,-5.6783,-5.6784,-5.6818,-5.6817,-5.6798,-5.6811,-5.6443,-5.6776,-5.6773,-5.6772,-5.677,-5.6769,-5.5521,-5.5625,-5.5723,-5.5855,-5.593,-5.6021,-5.6125,-5.6178,-5.6296,-5.6437,-5.6446,-5.6599,-5.6695,-5.6866,-5.6929,-5.7049,-5.7013,-5.7062,-5.7074,-5.7086,-5.7096,-5.6779,-5.7072,-5.7071,-5.7071,-5.707,-5.707,0,-5.5801,-5.5863,-5.5984,-5.612,-5.6223,-5.62,-5.6305,-5.6393,-5.6528,-5.6619,-5.6728,-5.689,-5.7021,-5.7092,-5.7222,-5.7304,-5.73,-5.7337,-5.7332,-5.7346,-5.7121,-5.7079,-5.7338,-5.7338,-5.7338,-5.7338,-5.7338,-5.7338,-5.5959,-5.6134,-5.6162,-5.6375,-5.6435,-5.6585,-5.6648,-5.6731,-5.6804,-5.6986,-5.7095,-5.714,-5.7224,-5.736,-5.7479,-5.7496,-5.7545,-5.7587,-5.76,-5.7389,-5.7361,-5.7335,-5.7296,-5.7597,-5.7597,-5.7815,-5.7817,-5.7819]}]]